Location: Balagbag Mahabang Kahoy
(14.1562°N, 120.9200°E)
Time: 17:47:56
(UTC+00:00)

BREEZE-M DEB - Pass Details

Date: 16 January 2026
Orbit: 941 x 34775 km, 45.1° (Epoch: 15 February)

Event Time Altitude Azimuth Distance (km) Brightness Sun altitude
Exits shadow 20:33:36 49° 231° (SW) 1,221 4.2 -26.3°
Maximum altitude 20:35:02 85° 314° (NW) 944 3.8 -26.0°
Drops below altitude 10° 20:40:42 10° 44° (NE) 3,144 7.0 -24.7°
Sets 20:44:08 0° 45° (NE) 4,835 8.0 -23.9°
